TimeCST,TemperatureF,Dew PointF,Humidity,Sea Level PressureIn,VisibilityMPH,Wind Direction,Wind SpeedMPH,Gust SpeedMPH,PrecipitationIn,Events,Conditions,WindDirDegrees,DateUTC
12:52 AM,37.9,21.0,51,29.71,10.0,SE,5.8,-,N/A,,Clear,130,2012-12-19 06:52:00
1:52 AM,39.9,21.0,47,29.67,10.0,SE,9.2,-,N/A,,Clear,140,2012-12-19 07:52:00
2:52 AM,39.0,21.9,50,29.66,10.0,SE,11.5,-,N/A,,Clear,140,2012-12-19 08:52:00
3:52 AM,39.0,21.9,50,29.65,10.0,SSE,11.5,-,N/A,,Clear,150,2012-12-19 09:52:00
4:52 AM,39.9,23.0,51,29.62,10.0,SSE,15.0,-,N/A,,Clear,150,2012-12-19 10:52:00
5:52 AM,41.0,26.1,55,29.61,10.0,SSE,16.1,-,N/A,,Mostly Cloudy,150,2012-12-19 11:52:00
6:52 AM,39.9,26.1,58,29.60,10.0,SE,11.5,-,N/A,,Partly Cloudy,130,2012-12-19 12:52:00
7:52 AM,39.9,27.0,60,29.59,10.0,SE,15.0,-,N/A,,Partly Cloudy,130,2012-12-19 13:52:00
8:52 AM,39.9,28.0,63,29.58,10.0,ESE,10.4,-,N/A,,Overcast,120,2012-12-19 14:52:00
9:52 AM,39.0,28.9,67,29.57,10.0,East,11.5,-,N/A,,Mostly Cloudy,100,2012-12-19 15:52:00
10:52 AM,41.0,30.0,65,29.55,10.0,SE,15.0,-,N/A,,Partly Cloudy,130,2012-12-19 16:52:00
11:52 AM,46.9,30.9,54,29.51,10.0,SSE,17.3,-,N/A,,Clear,150,2012-12-19 17:52:00
12:52 PM,50.0,30.9,48,29.46,10.0,SSE,19.6,-,N/A,,Clear,150,2012-12-19 18:52:00
1:52 PM,51.1,30.0,44,29.43,10.0,South,9.2,-,N/A,,Clear,180,2012-12-19 19:52:00
2:52 PM,53.1,28.9,40,29.44,10.0,WSW,6.9,-,N/A,,Clear,240,2012-12-19 20:52:00
3:52 PM,53.1,28.9,40,29.44,10.0,NW,10.4,-,N/A,,Clear,310,2012-12-19 21:52:00
4:52 PM,44.1,30.9,60,29.52,10.0,North,18.4,32.2,N/A,,Overcast,350,2012-12-19 22:52:00
5:52 PM,39.0,30.9,73,29.59,10.0,North,24.2,33.4,0.00,,Overcast,350,2012-12-19 23:52:00
6:03 PM,35.6,32.0,87,29.59,8.0,NNW,24.2,33.4,0.00,Rain,Light Rain,340,2012-12-20 00:03:00
6:05 PM,35.6,32.0,87,29.60,8.0,North,25.3,33.4,0.00,Rain,Light Rain,350,2012-12-20 00:05:00
6:13 PM,33.8,30.2,87,29.60,6.0,North,28.8,39.1,0.00,Snow,Light Snow,350,2012-12-20 00:13:00
6:21 PM,33.8,30.2,87,29.62,2.5,North,23.0,40.3,0.00,Snow,Light Snow,350,2012-12-20 00:21:00
6:52 PM,30.0,27.0,88,29.68,1.8,North,31.1,46.0,0.01,Snow,Light Snow,350,2012-12-20 00:52:00
7:09 PM,30.2,26.6,86,29.67,1.0,North,33.4,54.1,0.00,Snow,Light Snow,350,2012-12-20 01:09:00
7:24 PM,28.4,24.8,86,29.69,0.8,North,39.1,55.2,0.01,Snow,Light Snow,350,2012-12-20 01:24:00
7:52 PM,28.0,24.1,85,29.77,0.8,NNW,32.2,48.3,0.02,Snow,Light Snow,340,2012-12-20 01:52:00
8:10 PM,26.6,24.8,93,29.74,0.8,NNW,33.4,49.5,0.00,,Mist,340,2012-12-20 02:10:00
8:23 PM,26.6,24.8,93,29.75,0.8,NNW,31.1,48.3,0.00,,Mist,340,2012-12-20 02:23:00
8:33 PM,26.6,24.8,93,29.75,1.0,NNW,33.4,50.6,0.01,,Overcast,340,2012-12-20 02:33:00
8:52 PM,27.0,24.1,89,29.81,1.2,NNW,35.7,51.8,0.01,,Overcast,340,2012-12-20 02:52:00
9:07 PM,26.6,23.0,86,29.77,1.0,NNW,33.4,48.3,N/A,,Overcast,340,2012-12-20 03:07:00
9:46 PM,26.6,23.0,86,29.80,1.5,NNW,28.8,49.5,N/A,,Overcast,330,2012-12-20 03:46:00
9:47 PM,26.1,23.0,88,29.84,1.5,NNW,27.6,49.5,N/A,,Overcast,340,2012-12-20 03:47:00
9:50 PM,26.6,23.0,86,29.80,2.0,NNW,27.6,44.9,N/A,,Overcast,330,2012-12-20 03:50:00
10:02 PM,26.6,23.0,86,29.82,2.5,NNW,26.5,46.0,0.02,,Overcast,340,2012-12-20 04:02:00
10:05 PM,26.6,23.0,86,29.82,3.0,NNW,27.6,46.0,0.02,,Overcast,340,2012-12-20 04:05:00
10:12 PM,26.6,21.2,80,29.83,2.5,NNW,29.9,43.7,0.02,,Overcast,340,2012-12-20 04:12:00
10:45 PM,26.6,23.0,86,29.85,1.5,NNW,28.8,46.0,0.02,,Overcast,330,2012-12-20 04:45:00
10:52 PM,26.1,23.0,88,29.89,1.2,NNW,32.2,46.0,0.02,,Overcast,330,2012-12-20 04:52:00
11:15 PM,26.6,23.0,86,29.88,1.2,NNW,31.1,44.9,0.00,Snow,Light Snow,330,2012-12-20 05:15:00
11:36 PM,26.6,21.2,80,29.90,1.8,NW,32.2,44.9,0.01,Snow,Light Snow,320,2012-12-20 05:36:00
11:52 PM,26.1,21.9,84,29.95,1.2,NW,31.1,41.4,0.01,Snow,Light Snow,320,2012-12-20 05:52:00